Weather History for Manhattan, KS

Change the Weather History Date:

Monday, March 25, 2013

  Actual Average Record
Temperature  
Mean Temperature 29 °F 47 °F  
Max Temperature 35 °F 60 °F 80 °F (2007)
Min Temperature 23 °F 33 °F 19 °F (2006)
Degree Days  
Heating Degree Days 36 18  
Month to date heating degree days 681 575  
Since 1 July heating degree days 4438 4735  
Cooling Degree Days 0 0  
Month to date cooling degree days 0 0  
Year to date cooling degree days 0 0  
Moisture  
Dew Point 19 °F    
Average Humidity 68    
Maximum Humidity 81    
Minimum Humidity 54    
Precipitation  
Precipitation T in 0.08 in 0.04 in (2011)
Month to date precipitation 0.89 1.82  
Year to date precipitation 2.60 3.54  
Sea Level Pressure  
Sea Level Pressure 30.28 in    
Wind  
Wind Speed 7 mph (NNW)    
Max Wind Speed 16 mph    
Max Gust Speed 28 mph    
Visibility 9 miles    
Events Snow    
T = Trace of Precipitation, MM = Missing Value Source: NWS Daily Summary

Daily Weather History Graph

Daily Weather History Graph

Search for Another Location

Airport:

Trip Planner

Search our weather history database for the weather conditions in past years. The results will help you decide how hot, cold, wet, or windy it might be!

Date:

Astronomy

Mar. 25, 2013 Rise Set
Actual Time 7:21 AM CDT 7:43 PM CDT
Civil Twilight 6:55 AM CDT 8:10 PM CDT
Nautical Twilight 6:23 AM CDT 8:42 PM CDT
Astronomical Twilight 5:51 AM CDT 9:14 PM CDT
Moon 6:17 PM CDT (3/25) 6:05 AM CDT (3/25)
Length of Visible Light 13h 15m
Length of Day
12h 22m
Waxing Gibbous, 96% of the Moon is Illuminated
Mar 25
Waxing Gibbous
Mar 27
Full
Apr 2
Last Quarter
Apr 10
New
Apr 18
First Quarter

Hourly Weather History & Observations

Time (CDT) Temp. Windchill Dew Point Humidity Pressure Visibility Wind Dir Wind Speed Gust Speed Precip Events Conditions
12:52 AM 25.0 °F 17.1 °F 16.0 °F 69% 30.19 in 10.0 mi NNW 6.9 mph - N/A   Clear
1:52 AM 24.1 °F 18.2 °F 16.0 °F 71% 30.19 in 10.0 mi Variable 4.6 mph - N/A   Clear
2:52 AM 23.0 °F 14.7 °F 16.0 °F 74% 30.19 in 10.0 mi WNW 6.9 mph - N/A   Partly Cloudy
3:34 AM 24.8 °F 16.9 °F 17.6 °F 74% 30.16 in 10.0 mi WNW 6.9 mph - N/A   Overcast
3:52 AM 25.0 °F 18.1 °F 18.0 °F 75% 30.19 in 10.0 mi WNW 5.8 mph - N/A   Overcast
4:52 AM 25.0 °F 18.1 °F 19.9 °F 81% 30.20 in 4.0 mi WNW 5.8 mph - 0.00 in Snow Light Snow
5:04 AM 24.8 °F 19.1 °F 19.4 °F 80% 30.16 in 3.0 mi Variable 4.6 mph - 0.00 in Snow Light Snow
5:19 AM 26.6 °F 19.1 °F 21.2 °F 80% 30.17 in 3.0 mi Variable 6.9 mph - 0.00 in Snow Light Snow
5:52 AM 26.1 °F 18.4 °F 21.0 °F 81% 30.21 in 3.0 mi NW 6.9 mph - 0.00 in Snow Light Snow
6:52 AM 27.0 °F 19.5 °F 21.0 °F 78% 30.23 in 10.0 mi Variable 6.9 mph - 0.00 in   Overcast
7:29 AM 26.6 °F 19.1 °F 19.4 °F 74% 30.21 in 10.0 mi NNW 6.9 mph - N/A   Scattered Clouds
7:52 AM 26.1 °F 18.4 °F 19.0 °F 75% 30.25 in 10.0 mi NW 6.9 mph - N/A   Clear
8:52 AM 27.0 °F 19.5 °F 19.0 °F 72% 30.28 in 10.0 mi Variable 6.9 mph 16.1 mph N/A   Clear
9:52 AM 30.0 °F 19.5 °F 19.0 °F 64% 30.30 in 10.0 mi NNW 13.8 mph 24.2 mph N/A   Clear
10:26 AM 30.2 °F 20.2 °F 17.6 °F 60% 30.27 in 10.0 mi NNW 12.7 mph 25.3 mph N/A   Mostly Cloudy
10:48 AM 30.2 °F 19.3 °F 17.6 °F 60% 30.27 in 10.0 mi NNW 15.0 mph 23.0 mph N/A   Overcast
10:52 AM 30.0 °F 19.5 °F 18.0 °F 61% 30.31 in 10.0 mi NNW 13.8 mph 23.0 mph N/A   Overcast
11:52 AM 30.9 °F 21.7 °F 19.0 °F 61% 30.33 in 10.0 mi NNW 11.5 mph 18.4 mph N/A   Overcast
12:52 PM 32.0 °F 23.6 °F 18.0 °F 56% 30.32 in 10.0 mi NNW 10.4 mph 23.0 mph N/A   Overcast
1:52 PM 32.0 °F 23.0 °F 19.0 °F 59% 30.32 in 10.0 mi NNW 11.5 mph 20.7 mph N/A   Overcast
2:52 PM 34.0 °F 26.0 °F 19.9 °F 56% 30.32 in 10.0 mi NNW 10.4 mph 21.9 mph N/A   Overcast
3:52 PM 34.0 °F 25.0 °F 19.0 °F 54% 30.31 in 10.0 mi NNW 12.7 mph 19.6 mph N/A   Overcast
4:52 PM 33.1 °F 26.1 °F 19.9 °F 59% 30.33 in 10.0 mi NNW 8.1 mph 18.4 mph N/A   Overcast
5:52 PM 33.1 °F 26.1 °F 21.0 °F 61% 30.34 in 10.0 mi North 8.1 mph - N/A   Overcast
6:52 PM 30.9 °F 24.3 °F 21.9 °F 69% 30.36 in 10.0 mi North 6.9 mph - N/A   Overcast
7:52 PM 30.0 °F 25.2 °F 21.0 °F 69% 30.38 in 10.0 mi North 4.6 mph - N/A   Mostly Cloudy
8:52 PM 30.0 °F 26.5 °F 21.0 °F 69% 30.38 in 10.0 mi NNW 3.5 mph - N/A   Overcast
9:52 PM 28.9 °F 25.2 °F 21.0 °F 72% 30.40 in 10.0 mi NNW 3.5 mph - N/A   Overcast
10:52 PM 27.0 °F - 19.0 °F 72% 30.41 in 10.0 mi Calm Calm - N/A   Mostly Cloudy
11:52 PM 25.0 °F - 18.0 °F 75% 30.42 in 10.0 mi Calm Calm - N/A   Clear